Regional Weather Roundup
Issued by NWS

Home | Current Version | Previous Version | Graphics & Text | Print | Product List | Glossary Off
Versions: 1 2 3 4 5 6 7 8 9 10 11 12 13 14 15 16 17 18 19 20 21 22 23 24 25 26 27 28 29 30 31 32 33 34 35 36 37 38 39 40 41 42 43 44 45 46 47 48 49 50

000
ASUS43 KTOP 200608
RWRKS

WEATHER ROUNDUP FOR KANSAS
NATIONAL WEATHER SERVICE GOODLAND KS
100 AM CDT MON OCT 20 2014

NOTE:  "FAIR" INDICATES FEW OR NO CLOUDS BELOW 12,000 FEET WITH NO
SIGNIFICANT WEATHER AND/OR OBSTRUCTIONS TO VISIBILITY.

KSZ001>006-013>018-027>032-041>047-200700-
NORTHWEST KANSAS

CITY           SKY/WX    TMP DP  RH WIND       PRES   REMARKS
GOODLAND       CLEAR     43  40  89 W7        30.12S
6HR MIN TEMP:  43; 6HR MAX TEMP:  62;

HAYS           CLEAR     52  45  76 NE6       30.03R
HILL CITY      CLEAR     46  43  89 CALM      30.05S
6HR MIN TEMP:  46; 6HR MAX TEMP:  66;

RUSSELL        CLEAR     52  49  89 E6        30.01S
6HR MIN TEMP:  52; 6HR MAX TEMP:  63;

$$

KSZ061>065-074>080-084>089-200700-
SOUTHWEST KANSAS

CITY           SKY/WX    TMP DP  RH WIND       PRES   REMARKS
DODGE CITY     CLEAR     50  45  83 SW5       30.02R
6HR MIN TEMP:  50; 6HR MAX TEMP:  73;

ELKHART          N/A     55  44  66 NW5         N/A
GARDEN CITY    CLEAR     50  46  86 N9        30.03S
6HR MIN TEMP:  49; 6HR MAX TEMP:  67;

GREAT BEND     CLEAR     55  48  76 E3        30.02R
LIBERAL        CLEAR     54  45  71 N6        30.05R
PRATT          CLEAR     59  54  82 S12       30.01F
$$

KSZ066>073-081>083-090>101-200700-
SOUTHEAST KANSAS

CITY           SKY/WX    TMP DP  RH WIND       PRES   REMARKS
CHANUTE        MOCLDY    59  54  83 S7        30.04S
6HR MIN TEMP:  59; 6HR MAX TEMP:  62;

COFFEYVILLE    CLOUDY    60  55  83 S7        30.04F
6HR MIN TEMP:  59; 6HR MAX TEMP:  63; 6HR PCP:  0.06;

HUTCHINSON     CLEAR     57  52  83 S5        30.02S
6HR MIN TEMP:  57; 6HR MAX TEMP:  64;

MEDICINE LODGE   N/A     60  56  86 SE6       30.01S
NEWTON         CLEAR     55  48  76 S7        30.04S
PARSONS        CLOUDY    60  55  83 S5        30.05F
6HR MIN TEMP:  58; 6HR MAX TEMP:  63; 6HR PCP: TRACE;

WICHITA INTL   PTCLDY    58  53  84 S6        30.02R
6HR MIN TEMP:  58; 6HR MAX TEMP:  68;

WICHITA JABRA  PTCLDY    60  54  80 S8        30.02R
6HR MIN TEMP:  59; 6HR MAX TEMP:  67;

WICHITA MCCONL CLEAR     59  57  94 SW7       30.02S
WINFIELD       MOCLDY    60  54  80 S7        30.03F
6HR MIN TEMP:  60; 6HR MAX TEMP:  66;

$$

KSZ007>012-019>026-033>040-048>060-102>105-200700-
NORTHEAST KANSAS

CITY           SKY/WX    TMP DP  RH WIND       PRES   REMARKS
CONCORDIA      CLEAR     55  51  86 W6        30.01S
6HR MIN TEMP:  55; 6HR MAX TEMP:  63;

EMPORIA        PTCLDY    54  52  93 S7        30.02F
6HR MIN TEMP:  54; 6HR MAX TEMP:  71;

LAWRENCE       CLEAR     56  50  80 VRB5      30.01S
6HR MIN TEMP:  51; 6HR MAX TEMP:  62;

MANHATTAN      CLEAR     50  48  93 CALM      30.01S
6HR MIN TEMP:  48; 6HR MAX TEMP:  63;

MARYSVILLE     CLEAR     52  48  87 SW5       30.00S
OLATHE IND     CLEAR     56  51  84 SW12      30.02S
6HR MIN TEMP:  54; 6HR MAX TEMP:  58;

OLATHE EXE     CLEAR     55  51  86 SW3       30.00F
6HR MIN TEMP:  55; 6HR MAX TEMP:  60;

SALINA         CLEAR     53  49  86 CALM      30.02S
6HR MIN TEMP:  52; 6HR MAX TEMP:  62;

TOPEKA BILLARD CLEAR     59  53  80 SW6       30.01S
6HR MIN TEMP:  55; 6HR MAX TEMP:  66;

TOPEKA FORBES  CLEAR     56  51  84 SW9       30.01S
6HR MIN TEMP:  54; 6HR MAX TEMP:  63;

$$



USA.gov is the U.S. government's official web portal to all federal, state and local government web resources and services.